Content
SEND FEEDBACK

United States of America Flag

BURLINGTON, NORTH DAKOTA


Home > North America > United States > North Dakota
Elevation: 1679 feet     Latitude: 48 16N     Longitude: 101 17W

WEATHER
 
SELECT A DAY
Number of Records: 211,860;   Date Range: 1/1/95 - 7/30/15
 
SHARE

PRINT THIS DATA

[ ← Previous Day ]
WEATHER ALMANAC - JULY 30, 2014
[ Next Day → ]
[ °C ]   °F
Weather ElementAverageHighLow
Temperature69 °F79 °F (2:54 pm)57 °F (9:27 am)
Dewpoint57.1 °F60.8 °F (9:54 pm)51.1 °F (5:54 am)
Humidity68.6 %93 % (5:54 am)38 % (1:54 pm)
Barometer30.13 in30.16 in (5:54 am)30.08 in (10:34 am)
Wind Speed4.2 mph9.2 mph (6:54 pm)
Weather ElementAverage
Visibility9.9 mi
Wind DirectionS (175.8 °)

Weather ElementTotal
Precipitation---
Cooling Degree Days3 (Base 65)
Growing Degree Days18 (Base 50)
Averaged from 24 records on July 30, 2014
WEATHER CONDITIONS BREAKOUT
WIND DIRECTION BREAKOUT
WEATHER BY HOUR - JULY 30, 2014
[ °C ]   °F
Local TimeTemperatureDewpointHumidityBarometerVisibilityWind DirectionWind SpeedGust SpeedPrecipitationEventsConditions
12:54 AM63.0 °F60.1 °F90 %30.14 in10.0 miSW (230°)6.9 mphClear
1:54 AM62.1 °F59.0 °F90 %30.14 in10.0 miSW (230°)5.8 mphClear
2:54 AM61.0 °F57.9 °F90 %30.15 in10.0 miSW (230°)3.5 mphScattered Clouds
3:54 AM61.0 °F57.9 °F90 %30.15 in10.0 miSW (230°)5.8 mphOvercast
4:54 AM57.9 °F55.0 °F90 %30.15 in8.0 miCalmClear
5:54 AM59.0 °F55.9 °F90 %30.15 in10.0 miWSW (240°)3.5 mphPartly Cloudy
6:54 AM57.0 °F54.0 °F89 %30.15 in9.0 miCalmClear
7:54 AM59.0 °F57.0 °F93 %30.16 in10.0 miCalmClear
8:54 AM64.9 °F59.0 °F81 %30.16 in10.0 miSSW (210°)3.5 mphClear
9:54 AM70.0 °F59.0 °F68 %30.15 in10.0 miCalmClear
10:54 AM73.9 °F60.1 °F62 %30.15 in10.0 miCalmClear
11:54 AM75.2 °F60.8 °F61 %30.16 in10.0 miNNE (30°)4.6 mphPartly Cloudy
12:54 PM77.0 °F57.0 °F50 %30.14 in10.0 miCalmClear
1:54 PM78.1 °F57.0 °F48 %30.13 in10.0 miVariable5.8 mphScattered Clouds
2:54 PM79.0 °F54.0 °F42 %30.13 in10.0 miNW (320°)8.1 mphMostly Cloudy
3:54 PM79.0 °F51.1 °F38 %30.12 in10.0 miNNW (340°)5.8 mphClear
4:54 PM79.0 °F55.0 °F44 %30.11 in10.0 miNW (310°)8.1 mphClear
5:54 PM79.0 °F57.9 °F48 %30.10 in10.0 miNorth (350°)9.2 mphPartly Cloudy
6:54 PM77.0 °F59.0 °F54 %30.09 in10.0 miNorth (10°)8.1 mphPartly Cloudy
7:54 PM75.9 °F59.0 °F56 %30.09 in10.0 miNorth (350°)5.8 mphClear
8:54 PM70.0 °F57.9 °F65 %30.09 in10.0 miNNW (330°)3.5 mphClear
9:54 PM66.2 °F55.4 °F68 %30.10 in10.0 miNorth (360°)3.5 mphClear
10:54 PM66.0 °F55.9 °F70 %30.09 in10.0 miSW (230°)5.8 mphClear
11:54 PM64.9 °F55.0 °F70 %30.08 in10.0 miSW (220°)3.5 mphClear
Hourly data recorded from KMOT, located miles away from Burlington, North Dakota







STORIES FROM OUR PARTNERS